sat.trackr.live / text

‹ back to catalog

IRIDE-MS1-EAGLET 2-5

NORAD 66699 · 2025-276AK

PAYLOAD ACTIVE UNKNOWN

§ Identity

Operator
Country
IT
Launch date
2025-11-28
Launch site
AFWTR
Launch vehicle
Mass (kg)
RCS (m²)

External: N2YO · Heavens-Above · Gunter

§ Orbital elements

Epoch: 2026-09-20T20:43:29.016192Z

Period
94.66 min
Inclination
97.4120°
Eccentricity
0.0004811
Mean motion
15.21216816 rev/d
Perigee alt
498.9 km
Apogee alt
505.5 km
Semi-major
6,880.3 km
B*
2.0293e-4
RAAN
335.9206°
Arg perigee
49.9083°
Mean anomaly
310.2574°
Rev number
4,496

§ Raw data

IRIDE-MS1-EAGLET 2-51 66699U 25276AK  26263.86353028  .00004460  00000+0  20293-3 0  99942 66699  97.4120 335.9206 0004811  49.9083 310.2574 15.21216816 44964

JSON: /api/v1/satellites/66699 · /tle

For live sub-satellite position, see the globe view (requires WebGL).

§ Visibility from observer

Set your observer location to see the next 7 days of passes ≥ 10°. The values pass through the URL so the page stays shareable.

No JS? Fill the form by hand. The geolocation button needs JavaScript.